Regional Weather Roundup
Issued by NWS

Home | Current Version | Previous Version | Text Only | Print | Product List | Glossary Off
Versions: 1 2 3 4 5 6 7 8 9 10 11 12 13 14 15 16 17 18 19 20 21 22 23 24 25 26 27 28 29 30 31 32 33 34 35 36 37 38 39 40 41 42 43 44 45 46 47 48 49 50

000
ASUS43 KDMX 250601
RWRIA

WEATHER ROUNDUP FOR IOWA
NATIONAL WEATHER SERVICE DES MOINES IA
100 AM CDT THU MAY 25 2017

NOTE: "FAIR" INDICATES FEW OR NO CLOUDS BELOW 12,000 FEET WITH NO
SIGNIFICANT WEATHER AND/OR OBSTRUCTIONS TO VISIBILITY.

* - THESE STATIONS ARE NOT NWS STATIONS...THUS NOT UNDER NWS
QUALITY CONTROL.  THEY ALSO DO NOT REPORT WEATHER SUCH
AS PRECIPITATION OR FOG.

IAZ001>003-012>014-020>022-031>034-043>046-250700-
   NORTHWEST IOWA

CITY           SKY/WX    TMP DP  RH WIND       PRES   REMARKS
CARROLL *      CLEAR     50  48  93 CALM      29.69S
DENISON *      CLEAR     50  46  87 SE6       29.69F
LE MARS *      CLEAR     52  45  76 SE6       29.66F
ORANGE CITY *  CLEAR     48  45  87 SE3       29.67S
SHELDON *      CLEAR     48  45  87 SE9       29.66S
SIOUX CITY     CLEAR     47  45  93 SE8       29.66S
6HR MIN TEMP:  47; 6HR MAX TEMP:  64;

SPENCER        CLEAR     47  44  90 E7        29.68F
6HR MIN TEMP:  47; 6HR MAX TEMP:  63;

STORM LAKE *   CLEAR     50  46  87 SE8       29.68F
$$

IAZ055>058-069>071-079>083-090>094-250700-
   SOUTHWEST IOWA

CITY           SKY/WX    TMP DP  RH WIND       PRES   REMARKS
ATLANTIC *     CLEAR     50  48  93 CALM      29.69S
AUDUBON *      CLEAR     45  43  93 CALM      29.70S
CLARINDA *     FOG       48  48 100 CALM      29.71F VSB 1/2
COUNCIL BLFS * CLEAR     52  48  87 SE6       29.68S
CRESTON *      CLEAR     50  48  93 CALM      29.71F
HARLAN  *      CLEAR     52  48  87 S6        29.72S
LAMONI         CLEAR     51  47  86 CALM      29.69F
6HR MIN TEMP:  49; 6HR MAX TEMP:  64;

RED OAK *      CLEAR     50  46  87 CALM      29.69F
SHENANDOAH *   CLEAR     50  48  93 CALM      29.69F
$$

IAZ047>049-059>061-072>074-084-250700-
   CENTRAL IOWA

CITY           SKY/WX    TMP DP  RH WIND       PRES   REMARKS
AMES           CLEAR     48  48 100 CALM      29.69F FOG
6HR MIN TEMP:  47; 6HR MAX TEMP:  63;

ANKENY *       CLEAR     46  46 100 CALM      29.70F FOG
BOONE *          N/A     50  50 100 CALM      29.69S
CHARITON *     CLEAR     50  48  93 CALM      29.69S
DES MOINES     CLEAR     53  48  83 CALM      29.69F
6HR MIN TEMP:  52; 6HR MAX TEMP:  62;

GRINNELL*      CLEAR     48  46  92 CALM      29.70F
KNOXVILLE *    CLEAR     50  48  93 CALM      29.68S
MARSHALLTOWN   CLEAR     47  47 100 NW5       29.68F
6HR MIN TEMP:  46; 6HR MAX TEMP:  60;

NEWTON *       CLEAR     50  46  87 N3        29.68F
PELLA *        CLEAR     48  47  96 CALM      29.69F
PERRY *          N/A     50  49  97 CALM      29.69F
$$

IAZ004>006-015-016-023>025-035-036-250700-
   NORTH CENTRAL IOWA

CITY           SKY/WX    TMP DP  RH WIND       PRES   REMARKS
ALGONA *       CLEAR     50  50 100 SE5       29.70S
CLARION *      CLEAR     48  48 100 CALM      29.69F
ESTHERVILLE    CLEAR     47  47 100 E3        29.69S
6HR MIN TEMP:  47; 6HR MAX TEMP:  59;

FORT DODGE *   CLEAR     46  45  93 CALM      29.70S
MASON CITY     CLEAR     47  45  93 SE5       29.71S
6HR MIN TEMP:  47; 6HR MAX TEMP:  60;

FOREST CITY *  HAZE      46  36  66 CALM      29.70S VSB 1/2
WEBSTER CITY * CLEAR     50  48  93 CALM      29.67F
IOWA FALLS *     N/A     51  48  92 CALM      29.71S
$$

IAZ007>011-017>019-026>030-037>042-050>054-066-250700-
   NORTHEAST IOWA

CITY           SKY/WX    TMP DP  RH WIND       PRES   REMARKS
CEDAR RAPIDS   CLEAR     49  49 100 N6        29.67S
6HR MIN TEMP:  49; 6HR MAX TEMP:  57;

CHARLES CITY * CLEAR     50  50 100 CALM      29.71S
CLINTON *      CLOUDY    55  52  89 N10       29.65S
DECORAH *      PTCLDY    50  48  93 CALM      29.69S
DUBUQUE        MOCLDY    52  50  93 N7        29.67S
6HR MIN TEMP:  52; 6HR MAX TEMP:  56;

MONTICELLO *   PTCLDY    50  50 100 N5        29.67S
OELWEIN *      CLEAR     48  48 100 NE6       29.69F
WATERLOO       FOG       44  42  93 CALM      29.69S VSB 3/4
6HR MIN TEMP:  43; 6HR MAX TEMP:  59;

$$

IAZ064-065-067-068-078-250700-
   EAST CENTRAL IOWA

CITY           SKY/WX    TMP DP  RH WIND       PRES   REMARKS
DAVENPORT      MOCLDY    54  50  86 N10       29.65S
6HR MIN TEMP:  54; 6HR MAX TEMP:  61;

IOWA CITY      CLEAR     54  49  83 N8        29.68S
6HR MIN TEMP:  54; 6HR MAX TEMP:  62;

MT. PLEASANT * CLEAR     52  49  90 CALM      29.66S
MUSCATINE *    PTCLDY    52  48  87 CALM      29.66S
QUAD CITIES    CLOUDY    56  50  80 N10       29.63F
6HR MIN TEMP:  56; 6HR MAX TEMP:  62;

$$

IAZ062-063-075>077-085>089-095>099-250700-
   SOUTHEAST IOWA

CITY           SKY/WX    TMP DP  RH WIND       PRES   REMARKS
BURLINGTON     CLEAR     53  51  93 N7        29.64F
6HR MIN TEMP:  53; 6HR MAX TEMP:  63;

FAIRFIELD *    CLEAR     50  48  93 NW9       29.67S
FORT MADISON * CLEAR     54  52  94 N5        29.66S
KEOKUK *       CLEAR     54  50  87 CALM      29.64F
OSKALOOSA *      N/A     48  46  91 N6        29.69S
OTTUMWA        CLEAR     45  44  97 NW7       29.68F
6HR MIN TEMP:  45; 6HR MAX TEMP:  61;

WASHINGTON *   PTCLDY    52  50  93 N7        29.68S
$$

ABBREVIATIONS USED IN REMARKS
   TC - TEMPERATURES IN CELSIUS
  WCI - WIND CHILL INDEX
   HX - HEAT INDEX
  VSB - VISIBILITY
$$




USA.gov is the U.S. government's official web portal to all federal, state and local government web resources and services.